Location: Les Coudrans
(46.1056°N, 1.1158°W)
Time: 20:11:12
(UTC+00:00)

FALCON 9 DEB - Pass Details

Date: 03 March 2021
Orbit: 423 x 435 km, 53.0° (Epoch: 22 April)

Event Time Altitude Azimuth Distance (km) Brightness Sun altitude
Rises 18:15:00 0° 300° (WNW) 2,410 7.9 -4.5°
Reaches altitude 10° 18:17:15 10° 309° (NW) 1,537 6.7 -4.9°
Maximum altitude 18:20:27 35° 17° (NNE) 717 4.1 -5.4°
Drops below altitude 10° 18:23:38 10° 85° (E) 1,525 5.2 -6.0°
Enters shadow 18:24:05 - 88° (E) 1,692 5.4 -6.0°
